Tracking 28790 objects as of 19-Apr-2024
HD Live streaming from Space Station
objects crossing your sky now

FENGYUN 1C DEB

Track FENGYUN 1C DEB now!
10-day predictions


NORAD ID: 35155
Int'l Code: 1999-025DMK
Perigee: 825.0 km
Apogee: 863.3 km
Inclination: 98.5 °
Period: 101.7 minutes
Semi major axis: 7215 km
RCS: 0.0117 m2 (small)
Launch date: May 10, 1999
Source: People's Republic of China (PRC)
Launch site: Taiyaun Space Center, China (TSC)

Note: This is SATELLITE DEBRIS
Your satellite tracking list
Your tracking list is empty




NASA's NSSDC Master Catalog

Two Line Element Set (TLE):
1 35155U 99025DMK 24109.02109663  .00002644  00000-0  13430-2 0  9996
2 35155  98.5396 138.9401 0026532  19.2601 340.9571 14.16552586641579
Source of the keplerian elements: AFSPC